Вернуться в каталог

DMSP 5D-2 F11 DEB

АктивенSSO
NORAD 28302·DEBRIS·🇺🇸 United States

Запущен Nov 28, 1991 с Vandenberg Space Force Base

Loading…

Ближайшие Пролёты (ближайшие 24 часа)

TLE

СвежийSource: Space-Track

Эпоха: Sep 14, 2026, 00:45 UTC

1 28302U 91082P   26257.03136116  .00000949  00000-0  40611-3 0  9995
2 28302  98.6310 289.2738 0027944 347.0820  12.9641 14.27027237159185

Отслеживайте DMSP 5D-2 F11 DEB в реальном времени с AllMySat

Download on the App Store